Location: Bucares
(10.0761°N, 67.1439°W)
Time: 05:07:47
(UTC+00:00)

Daily predictions for brighter satellites

Satellite Brightness Start Highest point End
(mag) Time Altitude Azimuth Time Altitude Azimuth Time Altitude Azimuth
Ariane H10-3 4.1 00:03:41 10° WSW 00:05:40 21° SSW 00:05:40 21° SSW
Hubble Space Telescope 2.8 00:04:51 10° WNW 00:07:45 21° NNW 00:09:37 15° NNE
PSLV R/B 4.3 00:08:15 15° S 00:11:24 46° W 00:15:19 10° NNW
USA 32 3.9 00:06:22 10° S 00:11:34 83° E 00:16:47 10° N
Cosmos 2278 Rocket 3.1 00:10:41 10° N 00:14:34 31° NE 00:14:34 31° NE
Cosmos 2239 Rocket 4.4 00:20:28 55° E 00:20:28 55° E 00:26:27 10° NNE
Cosmos 1821 Rocket 4.1 00:14:52 10° S 00:21:02 76° W 00:27:17 10° N
SL-19 R/B 4.4 00:18:34 23° S 00:21:49 63° WSW 00:27:03 10° NNW
Meteor 2-8 Rocket 4.4 00:23:46 59° E 00:23:46 59° E 00:29:28 10° NNE
SL-16 R/B 2.7 00:20:42 10° SSW 00:26:13 58° WNW 00:31:45 10° N
Cosmos 2298 Rocket 3.9 00:27:34 10° SSW 00:32:51 83° WNW 00:38:08 10° N
Milstar 3 4.2 01:18:44 10° W 01:25:54 44° NNW 01:29:08 36° NNE
Cosmos 1943 Rocket 4.5 01:31:55 10° NW 01:34:22 19° WNW 01:34:22 19° WNW
Chandra Rocket (1) 4.4 01:21:57 10° WSW 01:44:00 57° NW 01:44:00 57° NW
ATLAS 5 CENTAUR R/B 4.2 06:36:42 71° N 06:37:12 72° NNE 07:30:24 10° ESE
Longmarch 3A Rocket 4.4 07:08:30 51° NE 07:08:30 51° NE 07:32:09 10° ESE
Cosmos 2360 Rocket 4.4 07:46:35 10° N 07:58:33 - SSE 07:47:31 15° N
CZ-2C R/B 3.5 08:00:42 10° NNE 08:04:40 38° E 08:04:40 38° E
Cosmos 2227 Rocket 3.5 08:13:03 21° SSE 08:16:04 37° ESE 08:21:12 10° NE
Atlas 2A Centaur Rocket 4.3 08:17:29 15° SE 08:17:44 15° SE 08:21:00 10° E
Cosmos 2219 Rocket 2.7 08:15:40 10° N 08:21:12 58° ENE 08:26:45 10° SSE
Centaur D AC-25 4.2 08:23:30 28° S 08:24:52 30° SSE 08:28:35 10° E
Hubble Space Telescope 2.8 08:32:24 18° SE 08:32:24 18° SE 08:33:30 10° SE
Meteor 2-11 Rocket 4.3 08:25:30 10° N 08:31:35 68° W 08:33:49 40° SSW
Aurora 2 Rocket 4.1 08:27:59 41° WNW 08:31:43 75° SSW 08:39:39 10° ESE
Lacrosse 4 Rocket 3.6 08:30:59 13° SSE 08:33:10 20° ESE 08:36:05 10° ENE
Palapa 6 Rocket 3.2 08:35:24 52° NE 08:35:24 52° NE 08:38:23 10° ENE
Cosmos 372 Rocket 3.9 08:34:43 10° N 08:39:48 79° ENE 08:44:51 10° SSE
Centaur D AC-29 2.6 08:41:02 30° WSW 08:48:27 85° NNW 08:52:51 10° ENE
Cosmos 2333 4.4 08:43:03 10° NNW 08:48:29 47° WSW 08:53:58 10° S
Cosmos 1500 Rocket 4.3 08:47:50 10° N 08:52:08 53° E 08:56:26 10° SSE
Cosmos 2297 Rocket 3.3 08:53:06 26° WNW 08:53:06 26° WNW 08:57:03 10° NNW
Aureole 1 Rocket 3.9 08:47:04 10° NNW 08:52:30 55° WSW 08:59:05 10° S
FengYun 1-2 T 4.2 08:47:06 10° NNE 08:52:44 90° SSE 08:58:19 10° SSW
Meteosat 1 Rocket2 2.4 08:52:50 71° WSW 08:53:11 88° SSE 08:56:50 10° ENE
Cosmos 1758 3.0 08:53:58 10° N 08:57:34 83° E 09:01:10 10° S
PAYLOAD A 3.9 08:54:43 10° N 08:59:12 50° WNW 09:00:58 33° SW
IUS R/B (1) 4.0 08:51:02 10° WNW 09:01:28 44° NNE 09:04:29 10° E
Sich 1 3.2 08:58:10 10° NNW 09:02:04 43° W 09:02:57 37° SW
S3M 4.4 08:59:36 24° SW 09:02:47 40° W 09:08:41 10° NNW
Okean 3 Rocket 3.9 09:01:30 10° NNW 09:05:43 43° W 09:09:59 10° SSW
SWIFT 1.4 09:05:24 59° SW 09:05:53 79° SSE 09:09:01 10° ENE
Intelsat 5-1 Rocket 4.1 09:02:15 25° SW 09:06:36 73° SSE 09:25:16 10° ENE
Cosmos 2263 Rocket 2.4 09:01:58 10° S 09:07:36 72° ESE 09:13:13 10° NNE
SL-16 R/B 2.5 09:02:32 10° S 09:08:43 68° WSW 09:14:54 10° NNW
Chandra Rocket (1) 3.7 09:06:30 11° NW 09:10:11 54° NE 09:22:44 10° ESE
SEDSat Delta rocket 4.2 09:09:14 17° SSW 09:11:40 30° SSE 09:15:13 10° E
Cosmos 1743 Rocket 4.2 09:09:00 10° N 09:13:15 57° E 09:17:28 10° SSE
Cosmos 1805 Rocket 3.4 09:09:25 10° N 09:13:43 68° W 09:18:00 10° S
NOSS 3-4 (A) 4.3 09:09:37 10° NNW 09:17:39 84° ENE 09:26:32 10° SSE
NOSS 3-4 (C) 4.3 09:10:11 10° NNW 09:18:14 84° ENE 09:27:04 10° SSE
Ariane H10+ 3.4 09:16:02 17° SW 09:20:44 30° S 09:25:02 10° ESE
COSMOS 2428 3.4 09:15:50 10° N 09:21:24 58° ENE 09:26:57 10° SSE
Cosmos 1898 Rocket 3.7 09:17:16 10° NNW 09:22:11 47° WSW 09:27:09 10° S
Cosmos 1340 Rocket 3.5 09:22:25 10° N 09:26:08 54° E 09:29:51 10° SSE
Cosmos 1937 Rocket 3.4 09:21:16 10° NNW 09:26:20 65° WSW 09:31:22 10° S
Meteor 1-13 Rocket 4.4 09:23:24 10° SSW 09:28:40 45° W 09:33:53 10° NNW
SL-4 R/B 4.1 09:28:30 10° N 09:31:34 25° NE 09:34:31 10° ESE
H-2A R/B 3.2 09:34:14 10° N 09:38:01 66° WNW 09:41:49 10° SSW
IRS-1D 3.6 09:33:35 10° N 09:38:47 81° WNW 09:44:04 10° SSW
Cosmos 1939 Rocket 4.5 09:41:11 10° NW 09:43:09 14° WNW 09:45:09 10° WSW
Intercosmos 25 3.4 09:40:38 10° SSW 09:44:04 40° W 09:47:03 10° NNW
Meteor 1-28 Rocket 3.3 09:42:43 10° S 09:45:46 36° W 09:48:47 10° NNW
NOAA 12 4.5 09:41:44 10° N 09:46:38 43° WNW 09:51:32 10° SSW
Meteor 1-23 Rocket 4.4 09:41:05 10° SSW 09:46:42 55° W 09:52:21 10° N
GPS 2-15 Rocket1 4.4 09:46:39 10° SW 09:50:44 31° SSE 09:54:52 10° E
Meteor 1-21 4.5 09:45:08 10° SSW 09:50:45 52° W 09:56:20 10° N
Cosmos 1570 Rocket 4.0 09:48:53 10° SSW 09:54:00 62° WNW 09:59:08 10° N
UNK 3.9 09:50:55 10° S 09:55:20 49° WSW 09:59:46 10° NNW
Nadezhda 1 Rocket 4.4 09:49:04 10° S 09:55:24 74° E 10:01:38 10° N
